Home > Weather > Rotterdam > Past weeks

Flag for Netherlands Weather for the Past 2 Weeks in Rotterdam, Netherlands

Now
39 °F

Passing clouds.


Feels Like: 34 °F
Forecast: 35 / 43 °F
Wind: 8 mph from Southwest

Location: Rotterdam Zestienhoven Airport

Current Time: Feb 11, 2016 at 2:06:02 AM

Latest Report: Feb 11, 2016 at 12:55 AM


Visibility: N/A

Pressure: 29.56 "Hg

Humidity: 81%

Dew point: 34 °F

Location of RotterdamLocation

Historic Weather in Rotterdam — Graph

°F

Rotterdam Temperature Yesterday

Maximum temperature yesterday: 45 °F (at 10:25 AM)
Minimum temperature yesterday: 37 °F (at 2:55 AM)
Average temperature yesterday: 42 °F

High & Low Weather Summary for the Past Weeks

 TemperatureHumidityPressure
High54 °F (Jan 27, 2:25 PM)100% (Jan 31, 3:25 PM)30.27 "Hg (Jan 31, 3:25 PM)
Low36 °F (Feb 3, 11:55 PM)57% (Jan 30, 9:55 PM)28.94 "Hg (Feb 9, 3:25 PM)
Average46 °F81%29.76 "Hg
* Reported Jan 26 11:25 PM — Feb 10 11:55 PM, Rotterdam, Weather by CustomWeather, © 2016

Note: Actual official high and low records may vary slightly from our data, if they occured in-between our weather recording intervals... More about our weather records

Advertising

Rotterdam Weather History for the Previous 24 Hours

 ConditionsComfort  
Time TempWeatherWind HumidityBarometerVisibility
11:55 PM
Wed, Feb 10
37 °FClear.3 mph87%29.53 "HgN/A
11:25 PM39 °FClear.6 mph81%29.53 "HgN/A
10:55 PM39 °FClear.6 mph81%29.53 "HgN/A
10:25 PM39 °FClear.7 mph75%29.53 "HgN/A
9:55 PM39 °FPassing clouds.9 mph75%29.53 "HgN/A
9:25 PM41 °FClear.10 mph70%29.50 "HgN/A
8:55 PM41 °FOvercast.13 mph76%29.50 "HgN/A
8:25 PM43 °FPassing clouds.13 mph81%29.50 "HgN/A
7:55 PM41 °FLight rain. Passing clouds.13 mph87%29.47 "HgN/A
7:25 PM43 °FPartly cloudy.15 mph81%29.47 "HgN/A
6:55 PM43 °FLight rain. Partly cloudy.12 mph81%29.45 "HgN/A
6:25 PM43 °FPassing clouds.13 mph81%29.45 "HgN/A
5:55 PM43 °FPassing clouds.10 mph81%29.42 "HgN/A
5:25 PM45 °FPartly sunny.13 mph76%29.42 "HgN/A
4:55 PM45 °FPartly sunny.13 mph81%29.39 "HgN/A
4:25 PM45 °FCloudy.12 mph81%29.39 "HgN/A
3:55 PM45 °FLight rain. Cloudy.13 mph81%29.36 "HgN/A
3:25 PM43 °FDrizzle. Broken clouds.8 mph87%29.36 "HgN/A
2:55 PM43 °FSprinkles. Broken clouds.10 mph87%29.33 "HgN/A
2:25 PM43 °FLight rain. Broken clouds.12 mph93%29.33 "Hg4 mi
1:55 PM43 °FLight rain. Mostly cloudy.16 mph87%29.33 "Hg4 mi
1:25 PM45 °FOvercast.15 mph81%29.30 "HgN/A
12:55 PM45 °FMore clouds than sun.17 mph76%29.30 "HgN/A
12:25 PM45 °FPartly sunny.15 mph81%29.30 "HgN/A
11:55 AM45 °FOvercast.15 mph81%29.30 "HgN/A
11:25 AM45 °FMore clouds than sun.15 mph81%29.27 "HgN/A
10:55 AM45 °FBroken clouds.15 mph71%29.27 "HgN/A
10:25 AM45 °FDrizzle. Broken clouds.10 mph81%29.24 "HgN/A
9:55 AM41 °FScattered clouds.12 mph87%29.24 "HgN/A
9:25 AM41 °FLight rain. Broken clouds.9 mph87%29.24 "HgN/A
8:55 AM41 °FBroken clouds.7 mph87%29.21 "HgN/A
8:25 AM41 °FLight rain. Broken clouds.9 mph87%29.21 "HgN/A
7:55 AM41 °FLight rain. Partly cloudy.10 mph81%29.21 "HgN/A
7:25 AM41 °FOvercast.8 mph81%29.21 "HgN/A
6:55 AM41 °FPartly cloudy.10 mph81%29.18 "HgN/A
6:25 AM41 °FLight rain. Passing clouds.7 mph81%29.18 "HgN/A
5:55 AM41 °FPartly cloudy.13 mph81%29.18 "HgN/A
5:25 AM41 °FLight rain. Partly cloudy.7 mph87%29.18 "HgN/A
4:55 AM41 °FDrizzle. Mostly cloudy.9 mph87%29.18 "HgN/A
4:25 AM41 °FDrizzle. Mostly cloudy.13 mph87%29.18 "HgN/A
3:55 AM39 °FLight rain. Partly cloudy.13 mph93%29.18 "HgN/A
3:25 AM39 °FLight rain. Passing clouds.16 mph87%29.18 "HgN/A
2:55 AM37 °FSprinkles. Partly cloudy.14 mph93%29.18 "Hg3 mi
2:25 AM39 °FSprinkles. Partly cloudy.15 mph87%29.18 "HgN/A
Weather by CustomWeather, © 2016

See weather overviewHow to use our weather pages